Location: Bílinka
(49.3579°N, 14.3767°E)
Time: 01:22:41
(UTC+00:00)

SKYMED 2 - Pass Details

Date: 28 January 2023
Orbit: 621 x 623 km, 97.9° (Epoch: 31 March)

Event Time Altitude Azimuth Distance (km) Brightness Sun altitude
Rises 17:39:58 0° 10° (N) 2,920 6.8 -17.6°
Reaches altitude 10° 17:42:12 10° 6° (N) 2,009 6.0 -17.9°
Maximum altitude 17:46:28 57° 289° (WNW) 741 4.2 -18.6°
Drops below altitude 10° 17:50:43 10° 211° (SSW) 1,993 6.6 -19.3°
Sets 17:52:56 0° 207° (SSW) 2,895 7.4 -19.7°
